Home   Weather   Andernach   Past weeks

Flag for Germany Past Weather in Andernach, Rhineland-Palatinate, Germany — Yesterday and Last 2 Weeks

Now
72 °F

Broken clouds.


Feels Like: 77 °F
Forecast: 47 / 70 °F
Wind: 14 mph from West

Location: Buechel

Current Time: May 23, 2017 at 2:31:07 pm

Latest Report: May 23, 2017 at 1:20 pm


Visibility: N/A

Pressure: 30.09 "Hg

Humidity: 44%

Dew Point: 48 °F

Location of AndernachLocation

Past Weather in Andernach — Graph

°F

Andernach Temperature Yesterday

Maximum temperature yesterday: 68 °F (at 2:20 pm)
Minimum temperature yesterday: 50 °F (at 4:20 am)
Average temperature yesterday: 60 °F

High & Low Weather Summary for the Past Weeks

 TemperatureHumidityPressure
High77 °F (May 17, 4:20 pm)100% (May 8, 8:02 pm)30.42 "Hg (May 8, 8:02 pm)
Low37 °F (May 9, 6:20 am)20% (May 15, 5:20 pm)29.47 "Hg (May 11, 5:20 pm)
Average56 °F66%30.01 "Hg
* Reported May 8 1:20 pm — May 23 1:20 pm, Andernach. Weather by CustomWeather, © 2017

Note: Actual official high and low records may vary slightly from our data, if they occured in-between our weather recording intervals... More about our weather records

Advertising

Andernach Weather History for the Previous 24 Hours

Scroll right to see more
 ConditionsComfort  
Time TempWeatherWind HumidityBarometerVisibility
1:20 pm
Tue, May 23
72 °FBroken clouds.14 mph44%30.09 "HgN/A
12:20 pm70 °FBroken clouds.8 mph46%30.09 "HgN/A
11:20 am68 °FPartly sunny.7 mph53%30.07 "HgN/A
10:20 am66 °FPartly sunny.6 mph56%30.07 "HgN/A
9:55 am66 °FPartly sunny.6 mph56%30.07 "HgN/A
9:20 am64 °FScattered clouds.7 mph64%30.07 "HgN/A
8:20 am61 °FScattered clouds.6 mph63%30.07 "HgN/A
7:20 am59 °FScattered clouds.5 mph63%30.07 "HgN/A
6:20 am57 °FScattered clouds.5 mph67%30.04 "HgN/A
5:20 am57 °FPartly cloudy.5 mph67%30.04 "HgN/A
4:20 am57 °FCool.3 mph67%30.04 "HgN/A
3:20 am59 °FCool.5 mph63%30.04 "HgN/A
2:20 am59 °FCool.5 mph63%30.04 "HgN/A
1:20 am59 °FCool.3 mph63%30.07 "Hg6 mi
12:20 am61 °FRefreshingly cool.5 mph59%30.07 "HgN/A
11:20 pm
Mon, May 22
61 °FRefreshingly cool.3 mph59%30.07 "HgN/A
10:30 pm61 °FPassing clouds.5 mph59%30.04 "HgN/A
9:20 pm63 °FPassing clouds.5 mph56%30.04 "HgN/A
8:20 pm66 °FPartly sunny.7 mph49%30.04 "HgN/A
7:20 pm68 °FScattered clouds.6 mph43%30.04 "HgN/A
6:20 pm68 °FScattered clouds.5 mph43%30.04 "HgN/A
5:20 pm68 °FScattered clouds.6 mph43%30.07 "HgN/A
4:27 pm68 °FScattered clouds.6 mph43%30.07 "HgN/A
3:20 pm68 °FScattered clouds.9 mph40%30.09 "HgN/A
2:20 pm68 °FScattered clouds.10 mph40%30.09 "HgN/A
Weather by CustomWeather, © 2017

See weather overviewHow to use our weather pages